GOES 3 (10953 NORAD) Tracking and Keplerian Element Data

This shows tracking and keplerian element data for the satellite.

Feedback or suggestion? Click here.




ElementValue
Catalog10953
NameGOES 3
Epoch Orbit12357
Epoch Day34.01642024
Epoch Year2025
RAAN302.9388
Inclination8.0316
Eccentricity0.0001752
Argument of Perigee326.5188
Mean Anonmoly241.0854
Mean Motion0.99363225
Decay Rate-7.2E-07
L11 10953U 78062A 25034.01642024 -.00000072 00000+0 00000+0 0 9992
L22 10953 8.0316 302.9388 0001752 326.5188 241.0854 0.99363225123570



Live tracking and technical data element details for GOES 3 (NORAD 10953). GOES 3 can be tracked NOW for your location showing map with azimuth and elevation plus other details from your city location.







IsCatalogInMostPopularTable: catalog: 10953, numindb: 341
Update: records affected: 1



GetName: 10953 GOES 3

Hit Count: updated at: Thu, 22 May 2025 03:03:28 GMT